Time,TemperatureF,DewpointF,PressureIn,WindDirection,WindDirectionDegrees,WindSpeedMPH,WindSpeedGustMPH,Humidity,HourlyPrecipIn,Conditions,Clouds,dailyrainin,SoftwareType,DateUTC
2013-07-20 00:00:00,-999.0,-99.9,30.51,North,360,3.0,-999.0,-999,-99.99,,,-99.99,,2013-07-20 08:00:00,
2013-07-20 00:44:00,-999.0,-99.9,30.51,North,360,3.0,-999.0,-999,-99.99,,,-99.99,,2013-07-20 08:44:00,
2013-07-20 00:52:00,-999.0,-99.9,30.51,North,360,3.0,-999.0,-999,-99.99,,,-99.99,,2013-07-20 08:52:00,
2013-07-20 01:00:00,-999.0,-99.9,30.50,North,360,5.0,-999.0,-999,-99.99,,,-99.99,,2013-07-20 09:00:00,
2013-07-20 01:33:00,-999.0,-99.9,30.50,North,360,5.0,-999.0,-999,-99.99,,,-99.99,,2013-07-20 09:33:00,
2013-07-20 01:43:00,-999.0,-99.9,30.50,North,360,5.0,-999.0,-999,-99.99,,,-99.99,,2013-07-20 09:43:00,
2013-07-20 01:53:00,-999.0,-99.9,30.50,North,360,5.0,-999.0,-999,-99.99,,,-99.99,,2013-07-20 09:53:00,
2013-07-20 02:00:00,-999.0,-99.9,30.49,North,10,7.0,-999.0,-999,-99.99,,,-99.99,,2013-07-20 10:00:00,
2013-07-20 02:32:00,-999.0,-99.9,30.49,North,10,7.0,-999.0,-999,-99.99,,,-99.99,,2013-07-20 10:32:00,
2013-07-20 02:42:00,-999.0,-99.9,30.49,North,10,7.0,-999.0,-999,-99.99,,,-99.99,,2013-07-20 10:42:00,
2013-07-20 02:52:00,-999.0,-99.9,30.49,North,10,7.0,-999.0,-999,-99.99,,,-99.99,,2013-07-20 10:52:00,
2013-07-20 03:00:00,-999.0,-99.9,30.50,North,360,6.0,-999.0,-999,-99.99,,,-99.99,,2013-07-20 11:00:00,
2013-07-20 03:32:00,-999.0,-99.9,30.50,North,360,6.0,-999.0,-999,-99.99,,,-99.99,,2013-07-20 11:32:00,
2013-07-20 03:43:00,-999.0,-99.9,30.50,North,360,6.0,-999.0,-999,-99.99,,,-99.99,,2013-07-20 11:43:00,
2013-07-20 03:52:00,-999.0,-99.9,30.50,North,360,6.0,-999.0,-999,-99.99,,,-99.99,,2013-07-20 11:52:00,
2013-07-20 04:00:00,52.0,51.0,30.45,North,360,2.0,-999.0,96,-99.99,,,-99.99,,2013-07-20 12:00:00,
2013-07-20 04:32:00,-999.0,-99.9,30.50,North,360,1.0,-999.0,-999,-99.99,,,-99.99,,2013-07-20 12:32:00,
2013-07-20 04:52:00,52.0,51.0,30.45,North,360,2.0,-999.0,96,-99.99,,,-99.99,,2013-07-20 12:52:00,
2013-07-20 05:00:00,-999.0,-99.9,30.50,North,360,2.0,-999.0,-999,-99.99,,,-99.99,,2013-07-20 13:00:00,
2013-07-20 05:32:00,-999.0,-99.9,30.50,North,360,2.0,-999.0,-999,-99.99,,,-99.99,,2013-07-20 13:32:00,
2013-07-20 05:43:00,-999.0,-99.9,30.50,North,360,2.0,-999.0,-999,-99.99,,,-99.99,,2013-07-20 13:43:00,
2013-07-20 05:53:00,-999.0,-99.9,30.50,North,360,2.0,-999.0,-999,-99.99,,,-99.99,,2013-07-20 13:53:00,
2013-07-20 06:00:00,-999.0,-99.9,30.48,North,10,10.0,-999.0,-999,-99.99,,,-99.99,,2013-07-20 14:00:00,
2013-07-20 06:32:00,-999.0,-99.9,30.48,North,10,10.0,-999.0,-999,-99.99,,,-99.99,,2013-07-20 14:32:00,
2013-07-20 06:43:00,-999.0,-99.9,30.48,North,10,10.0,-999.0,-999,-99.99,,,-99.99,,2013-07-20 14:43:00,
2013-07-20 06:53:00,-999.0,-99.9,30.48,North,10,10.0,-999.0,-999,-99.99,,,-99.99,,2013-07-20 14:53:00,
2013-07-20 07:00:00,-999.0,-99.9,30.50,North,10,9.0,-999.0,-999,-99.99,,,-99.99,,2013-07-20 15:00:00,
2013-07-20 07:33:00,-999.0,-99.9,30.50,North,10,9.0,-999.0,-999,-99.99,,,-99.99,,2013-07-20 15:33:00,
2013-07-20 07:44:00,-999.0,-99.9,30.50,North,10,9.0,-999.0,-999,-99.99,,,-99.99,,2013-07-20 15:44:00,
2013-07-20 07:53:00,-999.0,-99.9,30.50,North,10,9.0,-999.0,-999,-99.99,,,-99.99,,2013-07-20 15:53:00,
2013-07-20 08:00:00,-999.0,-99.9,30.48,North,10,13.0,-999.0,-999,-99.99,,,-99.99,,2013-07-20 16:00:00,
2013-07-20 08:32:00,-999.0,-99.9,30.48,North,10,13.0,-999.0,-999,-99.99,,,-99.99,,2013-07-20 16:32:00,
2013-07-20 08:44:00,-999.0,-99.9,30.48,North,10,13.0,-999.0,-999,-99.99,,,-99.99,,2013-07-20 16:44:00,
2013-07-20 08:52:00,-999.0,-99.9,30.48,North,10,13.0,-999.0,-999,-99.99,,,-99.99,,2013-07-20 16:52:00,
2013-07-20 09:00:00,-999.0,-99.9,30.48,North,10,14.0,-999.0,-999,-99.99,,,-99.99,,2013-07-20 17:00:00,
2013-07-20 09:43:00,-999.0,-99.9,30.48,North,10,14.0,-999.0,-999,-99.99,,,-99.99,,2013-07-20 17:43:00,
2013-07-20 09:53:00,-999.0,-99.9,30.48,North,10,14.0,-999.0,-999,-99.99,,,-99.99,,2013-07-20 17:53:00,
2013-07-20 10:00:00,-999.0,-99.9,30.48,North,10,6.0,-999.0,-999,-99.99,,,-99.99,,2013-07-20 18:00:00,
2013-07-20 10:38:00,-999.0,-99.9,30.48,North,10,6.0,-999.0,-999,-99.99,,,-99.99,,2013-07-20 18:38:00,
2013-07-20 10:47:00,-999.0,-99.9,30.48,North,10,6.0,-999.0,-999,-99.99,,,-99.99,,2013-07-20 18:47:00,
2013-07-20 11:00:00,-999.0,-99.9,30.48,North,10,5.0,-999.0,-999,-99.99,,,-99.99,,2013-07-20 19:00:00,
2013-07-20 11:45:00,-999.0,-99.9,30.48,North,10,5.0,-999.0,-999,-99.99,,,-99.99,,2013-07-20 19:45:00,
2013-07-20 11:58:00,-999.0,-99.9,30.48,North,10,5.0,-999.0,-999,-99.99,,,-99.99,,2013-07-20 19:58:00,
2013-07-20 12:00:00,-999.0,-99.9,30.48,North,10,8.0,-999.0,-999,-99.99,,,-99.99,,2013-07-20 20:00:00,
2013-07-20 12:47:00,-999.0,-99.9,30.48,North,10,8.0,-999.0,-999,-99.99,,,-99.99,,2013-07-20 20:47:00,
2013-07-20 12:58:00,-999.0,-99.9,30.48,North,10,8.0,-999.0,-999,-99.99,,,-99.99,,2013-07-20 20:58:00,
2013-07-20 13:00:00,55.0,51.0,30.47,NE,50,9.0,-999.0,84,-99.99,,,-99.99,,2013-07-20 21:00:00,
2013-07-20 13:32:00,55.0,51.0,30.47,NE,50,9.0,-999.0,84,-99.99,,,-99.99,,2013-07-20 21:32:00,
2013-07-20 14:00:00,-999.0,-99.9,30.48,North,10,7.0,-999.0,-999,-99.99,,,-99.99,,2013-07-20 22:00:00,
2013-07-20 14:51:00,-999.0,-99.9,30.48,North,10,7.0,-999.0,-999,-99.99,,,-99.99,,2013-07-20 22:51:00,
2013-07-20 14:57:00,-999.0,-99.9,30.48,North,10,7.0,-999.0,-999,-99.99,,,-99.99,,2013-07-20 22:57:00,
2013-07-20 15:00:00,-999.0,-99.9,30.46,North,10,10.0,-999.0,-999,-99.99,,,-99.99,,2013-07-20 23:00:00,
2013-07-20 15:41:00,-999.0,-99.9,30.46,North,10,10.0,-999.0,-999,-99.99,,,-99.99,,2013-07-20 23:41:00,
2013-07-20 15:59:00,-999.0,-99.9,30.46,North,10,10.0,-999.0,-999,-99.99,,,-99.99,,2013-07-20 23:59:00,
2013-07-20 16:00:00,55.0,51.0,30.45,South,190,7.0,-999.0,85,-99.99,,,-99.99,,2013-07-21 00:00:00,
2013-07-20 16:42:00,55.0,51.0,30.45,South,190,7.0,-999.0,85,-99.99,,,-99.99,,2013-07-21 00:42:00,
2013-07-20 16:53:00,55.0,51.0,30.45,South,190,7.0,-999.0,85,-99.99,,,-99.99,,2013-07-21 00:53:00,
2013-07-20 17:00:00,-999.0,-99.9,30.45,North,10,7.0,-999.0,-999,-99.99,,,-99.99,,2013-07-21 01:00:00,
2013-07-20 17:38:00,-999.0,-99.9,30.45,North,10,7.0,-999.0,-999,-99.99,,,-99.99,,2013-07-21 01:38:00,
2013-07-20 17:50:00,-999.0,-99.9,-100.00,North,10,7.0,-999.0,-999,-99.99,,,-99.99,,2013-07-21 01:50:00,
2013-07-20 18:00:00,-999.0,-99.9,30.44,North,10,13.0,-999.0,-999,-99.99,,,-99.99,,2013-07-21 02:00:00,
2013-07-20 18:39:00,-999.0,-99.9,30.44,North,10,13.0,-999.0,-999,-99.99,,,-99.99,,2013-07-21 02:39:00,
2013-07-20 18:58:00,-999.0,-99.9,30.44,North,10,13.0,-999.0,-999,-99.99,,,-99.99,,2013-07-21 02:58:00,
2013-07-20 19:00:00,-999.0,-99.9,30.43,North,10,9.0,-999.0,-999,-99.99,,,-99.99,,2013-07-21 03:00:00,
2013-07-20 19:37:00,-999.0,-99.9,30.43,North,10,9.0,-999.0,-999,-99.99,,,-99.99,,2013-07-21 03:37:00,
2013-07-20 19:47:00,-999.0,-99.9,30.43,North,10,9.0,-999.0,-999,-99.99,,,-99.99,,2013-07-21 03:47:00,